Weather observations for the past three days for
Fort Eustis / Felker
Imperial (Metric)
Date Time (edt) Wind (mph) Vis. (mi.) Weather Sky Cond. Temperature (ºF) Relative Humidity Wind Chill (°F) Heat Index (°F) Pressure Precipitation (in)
Air Dwpt 6 hour altimeter (in) sea level (mb) 1 hr 3 hr 6 hr
Max. Min.
12 20:55 S 8 5.00 Rain OVC035 73.4 71.6 94% 30.18 0.0
12 19:55 S 7 7.00 Overcast OVC035 75.2 73.4 94% 74 30.18 0.0
12 18:55 NW 5 6.00 Rain OVC035 75.2 73.4 94% 74 30.17 0.0
12 17:55 SW 7 5.00 Rain SCT030 BKN040 75.2 73.4 94% 74 30.15 0.0
12 16:55 Calm 6.00 Mostly Cloudy SCT030 BKN040 77 75.2 94% 78 30.15 0.0
12 15:55 SE 10 7.00 Mostly Cloudy SCT030 BKN040 77 75.2 94% 78 30.16 0.0
12 14:55 SE 7 7.00 Thunderstorm SCT030 BKN035 77 75.2 94% 78 30.15 0.0
12 12:55 S 12 G 23 2.00 Light Showers Rain Fog/Mist BKN019 BKN033 OVC040 77 73.4 89% 78 30.11 0.0
12 11:55 S 9 10.00 Overcast BKN035 OVC060 86 75.2 70% 95 30.11 0.0
12 10:55 S 9 5.00 Light Showers Rain BKN025 OVC036 82.4 77 84% 91 30.1 0.0
12 08:55 SW 6 10.00 Mostly Cloudy SCT034 BKN060 80.6 75.2 84% 86 30.07 0.0
12 07:55 S 6 10.00 Mostly Cloudy BKN025 78.8 77 94% 83 30.08 0.0
12 06:55 S 7 6.00 Thunderstorm Light Rain SCT015 BKN028 OVC044 75.2 73.4 94% 74 30.06 0.0
12 05:55 Vrbl 7 9.00 Overcast SCT018 BKN020 OVC043 77 75.2 94% 78 30.05 0.0
12 05:25 S 7 6.00 Thunderstorm Rain in Vicinity BKN020 BKN030 OVC050 75.2 75.2 100% 73 30.05 0.0
11 21:55 E 7 7.00 Mostly Cloudy BKN055 77 75.2 94% 78 30.03 0.0
11 20:55 SE 6 7.00 Overcast OVC055 77 75.2 94% 78 30.03 0.0
11 19:55 E 6 7.00 Mostly Cloudy SCT010 BKN100 77 73.4 89% 78 30.01 0.0
11 18:55 E 6 7.00 Mostly Cloudy BKN050 77 71.6 83% 78 30 0.0
11 17:55 SE 7 7.00 Mostly Cloudy BKN040 77 71.6 83% 78 30 0.0
11 16:55 Calm 7.00 Overcast OVC060 77 73.4 89% 78 30.01 0.0
11 15:55 E 7 7.00 Overcast SCT023 OVC095 77 71.6 83% 78 30 0.0
11 14:55 SE 7 7.00 Overcast OVC060 77 69.8 79% 79 30.01 0.0
11 13:55 E 7 7.00 Overcast OVC030 78.8 41 26% 78 29.99 0.0
11 12:55 E 12 10.00 Overcast OVC030 80.6 71.6 74% 85 29.99 0.0
11 11:55 NE 7 10.00 Overcast OVC033 80.6 75.2 84% 86 29.97 0.0
11 10:55 NE 12 G 18 10.00 Overcast BKN024 OVC045 80.6 73.4 79% 85 29.95 0.0
11 09:55 Vrbl 7 10.00 Mostly Cloudy BKN024 80.6 75.2 84% 86 29.94 0.0
11 08:55 Vrbl 7 10.00 Mostly Cloudy BKN025 80.6 75.2 84% 86 29.93 0.0
11 07:55 Vrbl 7 10.00 Mostly Cloudy BKN040 78.8 73.4 84% 82 29.93 0.0
11 06:55 Vrbl 3 10.00 Mostly Cloudy SCT018 BKN023 80.6 75.2 84% 86 29.9 0.0
11 05:55 S 7 10.00 Mostly Cloudy SCT015 BKN020 78.8 77 94% 83 29.91 0.0
10 22:55 S 17 10.00 NULL NULL 84.2 41 22% 82 29.85 0.0
10 21:55 S 14 10.00 A Few Clouds FEW060 84.2 75.2 74% 92 29.83 0.0
10 20:50 S 17 G 26 10.00 A Few Clouds FEW065 84.2 75.2 74% 92 29.81 0.0
10 19:55 S 18 10.00 A Few Clouds FEW045 87.8 75.2 66% 98 29.81 0.0
10 18:55 S 16 G 23 10.00 A Few Clouds FEW065 89.6 84.2 84% 115 29.79 0.0
10 17:55 S 20 G 25 10.00 Partly Cloudy SCT035 SCT065 91.4 75.2 59% 103 29.8 0.0
10 16:55 S 18 G 25 10.00 Partly Cloudy SCT060 91.4 75.2 59% 103 29.81 0.0
10 15:55 S 17 G 26 10.00 Mostly Cloudy SCT045 BKN060 91.4 75.2 59% 103 29.83 0.0
10 14:58 S 14 G 23 10.00 Mostly Cloudy BKN030 91.4 73.4 56% 100 29.84 0.0
10 14:56 S 14 G 23 10.00 Mostly Cloudy BKN030 91.4 73.4 56% 100 29.84 0.0
10 14:55 S 20 10.00 Mostly Cloudy BKN035 91.4 73.4 56% 100 29.84 0.0
10 13:55 S 14 G 20 10.00 Mostly Cloudy BKN030 91.4 73.4 56% 100 29.85 0.0
10 12:55 S 14 G 21 10.00 Mostly Cloudy BKN030 91.4 73.4 56% 100 29.86 0.0
10 11:55 S 14 G 21 10.00 Partly Cloudy SCT030 89.6 75.2 63% 100 29.89 0.0
10 10:55 S 14 G 21 10.00 Partly Cloudy SCT020 87.8 73.4 62% 96 29.9 0.0
10 09:55 S 12 G 17 10.00 Mostly Cloudy BKN016 84.2 75.2 74% 92 29.91 0.0
Date Time (edt) Wind (mph) Vis. (mi.) Weather Sky Cond. Air Dwpt Max. Min. Relative Humidity Wind Chill (°F) Heat Index (°F) altimeter (in) sea level (mb) 1 hr 3 hr 6 hr
6 hour
Temperature (ºF) Pressure Precipitation (in)